{"data":{"norad_id":68283,"intl_designator":"2026-055X","name":"STARLINK-37124","alt_names":[],"object_type":"PAYLOAD","status":"ACTIVE","operator":null,"country":"US","launch_date":"2026-03-19","launch_site_code":"AFETR","launch_vehicle":null,"mission":null,"orbit_class":"UNKNOWN","rcs_meters":null,"size_class":null,"mass_kg":null,"dimensions":null,"purposes":["comms"],"wikipedia_slug":null,"has_3d_model":false,"image_url":null,"decayed_at":null,"tle_current":{"epoch":"2026-05-24T18:56:03.499296Z","epoch_age_seconds":83465,"freshness":"FRESH","line1":"1 68283U 26055X   26144.78892939  .00011107  00000+0  38649-3 0  9999","line2":"2 68283  53.1589 326.3898 0000993  86.0528 274.0586 15.30205073 11571","mean_motion":15.30205073,"eccentricity":9.93e-5,"inclination_deg":53.1589,"raan_deg":326.3898,"arg_perigee_deg":86.0528,"mean_anomaly_deg":274.0586,"bstar":0.00038649,"rev_number":1157,"period_min":94.105033724457,"perigee_km":474.51938604119,"apogee_km":475.88045875398,"semimajor_km":6853.3369223976,"source":"CELESTRAK","updated_at":"2026-05-25T13:38:21.894686Z"}}}